Dundee, United Kingdom

2:02 AM BST on September 23, 2017 (GMT +0100)
Dundee

Weather History for EGPN - October, 2012

Change the Weather History Date:

Tuesday, October 2, 2012

  Actual Average Record
Temperature  
Mean Temperature 50 °F -  
Max Temperature 53 °F 53 °F 66 °F (2002)
Min Temperature 46 °F 46 °F 39 °F (2008)
Degree Days  
Heating Degree Days 16    
Moisture  
Dew Point 44 °F    
Average Humidity 81    
Maximum Humidity 93    
Minimum Humidity 71    
Precipitation  
Precipitation 0.00 in - - ()
Sea Level Pressure  
Sea Level Pressure 29.43 in    
Wind  
Wind Speed 11 mph ()    
Max Wind Speed 16 mph    
Max Gust Speed -    
Visibility 6.2 miles    
Events Rain    
Averages and records for this station are not official NWS values.
T = Trace of Precipitation, MM = Missing Value Source: Averaged Metar Reports

Daily Weather History Graph

Daily Weather History Graph

Search for Another Location

Airport or City:

Trip Planner

Search our weather history database for the weather conditions in past years. The results will help you decide how hot, cold, wet, or windy it might be!

Date:

Astronomy

Oct. 02, 2012 Rise Set
Actual Time 7:17 AM BST 6:43 PM BST
Civil Twilight 6:40 AM BST 7:20 PM BST
Nautical Twilight 5:56 AM BST 8:04 PM BST
Astronomical Twilight 5:11 AM BST 8:49 PM BST
Moon 7:08 PM BST (10/2) 10:07 AM BST (10/2)
Length of Visible Light 12h 40m
Length of Day
11h 25m
Waning Gibbous, 95% of the Moon is Illuminated
Oct 2
Waning Gibbous
Oct 8
Last Quarter
Oct 15
New
Oct 22
First Quarter
Oct 29
Full

Hourly Weather History & Observations

Time (BST) Temp. Windchill Dew Point Humidity Pressure Visibility Wind Dir Wind Speed Gust Speed Precip Events Conditions
6:20 AM 46.4 °F 40.1 °F 44.6 °F 93% 29.50 in 6.2 mi SW 15.0 mph - N/A   Scattered Clouds
6:50 AM 46.4 °F 40.4 °F 42.8 °F 87% 29.50 in 6.2 mi SW 13.8 mph - N/A   Scattered Clouds
7:50 AM 48.2 °F - 42.8 °F 82% 29.50 in 6.2 mi SW 12.7 mph - N/A   Scattered Clouds
8:20 AM 48.2 °F - 42.8 °F 82% 29.50 in 6.2 mi SW 13.8 mph - N/A   Scattered Clouds
8:50 AM 48.2 °F - 42.8 °F 82% 29.50 in 6.2 mi SW 11.5 mph - N/A   Scattered Clouds
9:20 AM 48.2 °F - 42.8 °F 82% 29.50 in 6.2 mi SSW 13.8 mph - N/A   Scattered Clouds
9:50 AM 48.2 °F - 42.8 °F 82% 29.50 in 6.2 mi SSW 13.8 mph - N/A   Scattered Clouds
10:20 AM 50.0 °F - 44.6 °F 82% 29.50 in 6.2 mi SSW 16.1 mph - N/A   Scattered Clouds
10:50 AM 50.0 °F - 44.6 °F 82% 29.47 in 6.2 mi SSW 8.1 mph - N/A   Scattered Clouds
11:20 AM 51.8 °F - 44.6 °F 76% 29.47 in 6.2 mi SW 9.2 mph - N/A   Scattered Clouds
11:50 AM 53.6 °F - 46.4 °F 77% 29.47 in 6.2 mi SW 13.8 mph - N/A   Scattered Clouds
12:20 PM 51.8 °F - 44.6 °F 76% 29.44 in 6.2 mi SW 13.8 mph - N/A   Scattered Clouds
12:50 PM 53.6 °F - 46.4 °F 77% 29.44 in 6.2 mi SW 9.2 mph - N/A   Scattered Clouds
1:20 PM 51.8 °F - 42.8 °F 71% 29.44 in 6.2 mi SSW 15.0 mph - N/A   Scattered Clouds
1:50 PM 51.8 °F - 42.8 °F 71% 29.42 in 6.2 mi South 12.7 mph - N/A   Mostly Cloudy
2:20 PM 50.0 °F - 42.8 °F 76% 29.42 in 6.2 mi SSW 12.7 mph - N/A Rain Light Rain Showers
2:50 PM 50.0 °F - 46.4 °F 87% 29.42 in 6.2 mi WSW 13.8 mph - N/A   Mostly Cloudy
3:20 PM 50.0 °F - 44.6 °F 82% 29.42 in 6.2 mi WSW 12.7 mph - N/A   Mostly Cloudy
3:50 PM 50.0 °F - 44.6 °F 82% 29.42 in 6.2 mi WSW 13.8 mph - N/A   Mostly Cloudy
4:20 PM 51.8 °F - 44.6 °F 76% 29.42 in 6.2 mi WSW 15.0 mph - N/A   Partly Cloudy
4:50 PM 50.0 °F - 42.8 °F 76% 29.42 in 6.2 mi WSW 12.7 mph - N/A   Partly Cloudy
5:20 PM 50.0 °F - 44.6 °F 82% 29.39 in 6.2 mi WSW 13.8 mph - N/A   Partly Cloudy
5:50 PM 50.0 °F - 44.6 °F 82% 29.39 in 6.2 mi WSW 12.7 mph - N/A   Partly Cloudy
6:20 PM 50.0 °F - 44.6 °F 82% 29.39 in 6.2 mi SW 5.8 mph - N/A   Partly Cloudy
6:50 PM 48.2 °F - 42.8 °F 82% 29.39 in 6.2 mi SSW 5.8 mph - N/A   Partly Cloudy
7:20 PM 48.2 °F - 42.8 °F 82% 29.36 in 6.2 mi South 5.8 mph - N/A   Partly Cloudy
7:50 PM 48.2 °F - 42.8 °F 82% 29.36 in 6.2 mi SE 3.5 mph - N/A   Partly Cloudy
8:20 PM 46.4 °F 44.3 °F 44.6 °F 93% 29.36 in 6.2 mi ESE 4.6 mph - N/A   Scattered Clouds
8:50 PM 46.4 °F 43.5 °F 42.8 °F 87% 29.36 in 6.2 mi East 5.8 mph - N/A   Scattered Clouds
9:20 PM 48.2 °F - 42.8 °F 82% 29.33 in 6.2 mi East 8.1 mph - N/A   Scattered Clouds
9:50 PM 48.2 °F - 42.8 °F 82% 29.33 in 6.2 mi ENE 6.9 mph - N/A Rain Light Rain Showers